Location: Go�ngahuizen
(53.0821°N, 5.8849°E)
Time: 03:08:33
(UTC+00:00)

USA 186 - Pass Details

Date: 09 April 2020
Orbit: 261 x 446 km, 96.9° (Epoch: 04 June)

Event Time Altitude Azimuth Distance (km) Brightness Sun altitude
Rises 18:09:53 0° 137° (SE) 2,390 5.1 1.6°
Reaches altitude 10° 18:12:10 10° 123° (ESE) 1,500 4.0 1.3°
Drops below altitude 10° 18:17:21 10° 12° (NNE) 1,431 4.5 0.5°
Enters shadow 19:11:40 -65° 169° (S) 11,981 9.0 -7.2°
Maximum altitude 19:45:44 26° 264° (W) 851 3.9 -11.8°
